Home   Weather   Glasgow   Past weeks

Flag for United Kingdom Past Weather in Glasgow, Scotland, United Kingdom — Yesterday and Last 2 Weeks

Now
57 °F

Light rain. Partly cloudy.


Feels Like: 55 °F
Forecast: 51 / 58 °F
Wind: 9 mph from Southwest

Location: Glasgow Airport

Current Time: Aug 18, 2017 at 4:00:35 am

Latest Report: Aug 18, 2017 at 3:20 am


Visibility: N/A

Pressure: 29.50 "Hg

Humidity: 94%

Dew Point: 55 °F

Location of GlasgowLocation

Past Weather in Glasgow — Graph

°F

Glasgow Temperature Yesterday

Maximum temperature yesterday: 66 °F (at 12:50 pm)
Minimum temperature yesterday: 48 °F (at 5:50 am)
Average temperature yesterday: 59 °F

High & Low Weather Summary for the Past Weeks

 TemperatureHumidityPressure
High68 °F (Aug 8, 3:20 pm)100% (Aug 8, 5:20 am)30.27 "Hg (Aug 8, 5:20 am)
Low45 °F (Aug 8, 5:50 am)46% (Aug 9, 2:20 pm)29.36 "Hg (Aug 3, 5:50 am)
Average57 °F81%29.89 "Hg
* Reported Aug 3 2:20 am — Aug 18 2:20 am, Glasgow. Weather by CustomWeather, © 2017

Note: Actual official high and low records may vary slightly from our data, if they occured in-between our weather recording intervals... More about our weather records

Advertising

Glasgow Weather History for the Previous 24 Hours

Scroll right to see more
 ConditionsComfort  
Time TempWeatherWind HumidityBarometerVisibility
2:20 am
Fri, Aug 18
57 °FMostly cloudy.5 mph94%29.53 "HgN/A
1:50 am57 °FLight rain. Partly cloudy.3 mph94%29.53 "Hg3 mi
1:20 am57 °FLight rain. Passing clouds.5 mph94%29.56 "HgN/A
12:50 am57 °FLight rain. Passing clouds.6 mph94%29.56 "HgN/A
12:20 am57 °FLight rain. Passing clouds.7 mph94%29.56 "HgN/A
11:50 pm
Thu, Aug 17
57 °FLight rain. Passing clouds.7 mph94%29.56 "HgN/A
11:20 pm57 °FPassing clouds.5 mph94%29.59 "HgN/A
10:50 pm55 °FPassing clouds.3 mph94%29.59 "HgN/A
10:20 pm57 °FPassing clouds.5 mph94%29.59 "HgN/A
9:50 pm57 °FCool.6 mph94%29.59 "HgN/A
9:20 pm57 °FLight rain. Passing clouds.5 mph94%29.62 "HgN/A
8:50 pm57 °FPassing clouds.3 mph94%29.62 "HgN/A
8:20 pm57 °FPartly sunny.3 mph94%29.62 "HgN/A
7:50 pm57 °FLight rain. Cloudy.1 mph94%29.62 "HgN/A
7:20 pm57 °FLight rain. Passing clouds.3 mph94%29.62 "HgN/A
6:50 pm57 °FLight rain. Broken clouds.6 mph94%29.65 "Hg3 mi
6:20 pm63 °FLight rain. Broken clouds.12 mph77%29.62 "HgN/A
5:50 pm64 °FScattered clouds.13 mph73%29.62 "HgN/A
5:20 pm66 °FScattered clouds.17 mph64%29.62 "HgN/A
4:50 pm66 °FPassing clouds.17 mph68%29.62 "HgN/A
4:20 pm66 °FPassing clouds.22 mph64%29.65 "HgN/A
3:50 pm66 °FPassing clouds.20 mph73%29.65 "HgN/A
3:20 pm66 °FPassing clouds.21 mph68%29.65 "HgN/A
2:50 pm66 °FMild.17 mph73%29.65 "HgN/A
1:50 pm66 °FScattered clouds.20 mph68%29.65 "HgN/A
1:20 pm66 °FMild.22 mph68%29.65 "HgN/A
12:50 pm66 °FMild.20 mph68%29.65 "HgN/A
12:20 pm64 °FScattered clouds.23 mph73%29.65 "HgN/A
11:50 am63 °FPartly sunny.21 mph77%29.65 "HgN/A
11:20 am63 °FPartly sunny.18 mph77%29.65 "HgN/A
10:50 am63 °FBroken clouds.14 mph77%29.68 "HgN/A
10:20 am63 °FPartly sunny.10 mph77%29.65 "HgN/A
9:50 am59 °FScattered clouds.14 mph82%29.65 "HgN/A
9:20 am59 °FPassing clouds.10 mph88%29.65 "HgN/A
8:50 am59 °FPartly sunny.10 mph82%29.65 "HgN/A
8:20 am57 °FCool.9 mph88%29.65 "HgN/A
7:50 am57 °FPassing clouds.10 mph94%29.65 "HgN/A
7:20 am57 °FPassing clouds.14 mph94%29.65 "HgN/A
6:50 am52 °FPassing clouds.3 mph100%29.65 "HgN/A
6:20 am50 °FPartly sunny.3 mph100%29.65 "HgN/A
5:50 am48 °FPassing clouds.1 mph100%29.65 "HgN/A
5:20 am50 °FCool.5 mph100%29.65 "HgN/A
4:50 am50 °FCool.2 mph94%29.65 "HgN/A
4:20 am52 °FFog.2 mph94%29.65 "Hg1 mi
Weather by CustomWeather, © 2017

See weather overviewHow to use our weather pages